Wind_Speed
30 30 30 30 30 30 30 29 28 28 28 27 26 25 24 22 21 20 19 17 16 15 14 13 12 11 10 10 9 9 8 8 8 7 7 6 6 6 6 5 5 4 4 4 4 4 4 4 4 4 4 5 6 7 8 9 9 10 10 9 9 8 7 7 6 6 7 7 7
31 30 30 30 30 30 30 29 29 29 28 27 25 24 23 21 20 19 18 17 16 15 14 13 12 11 11 10 9 9 9 9 8 8 7 7 6 6 6 5 5 4 4 4 3 3 3 3 3 3 4 5 5 6 7 8 9 10 10 9 8 7 7 6 6 6 6 7 7
31 31 31 31 31 30 30 29 29 29 28 26 25 23 21 20 19 18 18 17 16 15 14 14 13 12 11 10 10 10 9 9 9 8 8 7 7 6 6 5 5 5 4 4 3 3 3 2 2 2 3 4 5 5 6 8 9 10 10 9 8 7 6 6 6 6 7 7 7
31 31 31 31 31 30 30 29 28 27 27 25 24 22 21 19 18 18 17 17 16 15 14 14 13 12 11 11 11 10 10 9 9 8 8 8 7 6 6 5 5 5 5 4 4 3 3 2 1 1 2 3 4 5 6 7 8 9 10 9 8 6 5 5 6 6 7 7 8
30 30 30 30 30 29 28 27 27 26 25 24 23 21 20 19 18 18 17 17 16 15 14 13 13 12 11 11 11 11 10 9 9 8 8 8 7 6 6 5 5 5 5 4 4 4 3 2 1 0 1 2 3 4 5 6 7 8 9 9 8 6 5 5 6 6 7 7 8
29 29 29 28 28 27 26 25 25 25 24 23 22 21 20 19 18 18 17 17 16 15 14 13 12 12 12 11 11 11 10 10 9 9 8 8 7 7 6 6 5 5 5 5 4 4 4 3 2 2 2 2 3 4 5 5 6 7 8 9 8 7 6 5 5 6 6 7 8
28 28 27 27 26 26 25 25 24 24 23 22 21 21 20 19 18 18 17 16 15 15 14 13 13 12 12 12 12 11 11 10 9 9 8 8 7 7 7 6 6 6 6 5 5 5 4 4 4 3 3 3 3 4 5 5 5 6 7 8 8 7 6 5 6 6 7 7 8
27 27 26 26 26 25 24 24 23 23 22 22 21 20 19 18 18 17 17 16 16 15 14 13 13 12 12 12 11 11 11 10 10 9 8 8 8 8 7 7 7 7 7 7 6 6 6 6 5 5 5 4 4 4 5 5 5 5 6 7 7 7 7 6 6 7 7 8 8
27 26 26 25 25 24 24 23 23 22 22 21 20 19 18 18 17 17 17 17 16 15 14 13 12 12 11 11 11 11 10 10 10 9 9 9 9 9 9 8 8 8 8 8 8 7 7 7 7 7 6 6 5 5 6 6 6 6 6 6 6 7 6 6 7 7 8 9 9
27 27 26 25 25 24 23 23 22 22 21 21 20 19 18 17 17 18 17 17 16 15 14 13 12 12 12 11 11 11 10 10 10 10 9 10 10 10 10 10 9 9 9 9 9 9 9 9 9 9 8 8 7 7 7 7 7 7 6 6 6 6 6 6 7 8 9 9 9
28 27 26 25 25 24 23 23 22 21 21 20 20 19 18 18 18 18 17 17 16 15 14 13 12 12 12 11 11 10 10 10 10 10 10 10 10 10 11 11 10 10 10 10 10 11 11 11 11 10 10 9 9 8 8 8 8 8 8 7 6 6 6 6 6 7 8 9 10
27 27 26 25 25 24 24 23 23 22 21 21 20 20 19 18 18 18 18 17 16 15 14 13 12 12 11 11 11 10 10 10 10 10 11 11 11 12 12 12 12 11 11 11 12 12 13 13 12 12 12 11 11 10 10 10 10 10 9 8 7 6 6 6 6 7 8 9 10
27 27 26 26 25 25 24 24 23 22 22 21 21 20 20 19 19 19 19 18 16 15 14 13 12 12 11 11 11 10 10 10 10 11 11 12 12 13 13 13 13 13 13 13 13 14 14 14 14 14 13 13 12 12 12 11 11 11 11 10 8 7 6 6 6 7 8 9 10
27 27 27 26 26 25 25 24 24 23 23 22 21 21 20 19 19 19 19 18 17 15 14 13 12 12 11 11 11 11 10 11 11 12 12 13 13 14 14 14 14 14 14 14 14 15 15 15 15 15 15 15 14 14 13 13 13 13 12 11 10 8 7 6 7 7 7 8 9
28 28 27 26 26 26 25 25 24 24 23 22 22 21 20 20 20 19 19 18 17 15 14 13 13 12 12 12 11 11 11 11 12 13 13 14 15 15 15 16 15 15 15 15 15 16 16 16 17 17 17 16 16 16 15 15 15 14 14 13 12 10 8 7 7 7 7 8 9
29 28 27 27 26 26 26 26 25 24 23 22 22 21 20 20 20 19 19 18 17 16 15 14 13 13 13 12 12 12 12 12 13 14 15 15 16 16 16 17 16 16 16 16 16 16 17 17 18 18 18 18 18 17 17 17 16 16 15 15 13 12 9 8 7 7 8 8 9
29 28 28 27 27 27 27 26 25 24 23 23 22 21 20 20 20 20 19 19 18 17 16 15 14 14 14 13 13 13 13 14 14 15 16 16 17 17 17 18 17 17 17 17 17 17 17 18 19 19 19 19 19 19 18 18 18 17 17 16 15 13 10 8 7 7 8 9 10
30 29 28 28 28 28 27 27 26 24 24 23 22 21 20 20 20 20 20 19 19 18 17 16 15 15 15 15 15 15 15 15 16 16 17 17 18 18 18 18 18 18 18 18 18 18 18 19 19 20 20 20 20 20 20 20 19 18 18 17 16 14 11 8 7 7 8 10 10
31 30 29 29 29 28 28 27 26 25 24 23 22 21 21 20 20 20 20 20 20 19 18 17 17 17 17 17 16 16 16 17 17 18 18 18 18 19 19 19 19 19 19 18 18 19 19 20 20 21 21 22 22 22 22 21 20 20 19 18 16 14 11 8 7 7 8 10 11
33 32 31 30 30 29 28 27 26 25 24 22 22 21 21 20 20 20 21 21 20 20 19 19 19 19 18 18 18 18 18 18 18 18 19 19 19 20 20 20 20 20 19 19 19 19 20 20 21 22 23 23 23 23 23 23 22 21 20 18 16 13 11 8 7 8 9 10 11
34 33 32 31 30 30 29 28 27 25 24 23 22 21 21 21 21 21 21 20 20 20 20 20 20 20 20 19 19 19 19 19 19 19 19 20 20 21 21 21 20 20 20 20 20 20 20 21 22 23 24 24 25 25 25 24 23 22 20 18 16 13 10 9 8 9 9 11 11
35 34 33 32 31 30 29 28 27 25 24 23 22 21 21 21 21 21 20 20 20 21 21 21 21 21 20 20 20 20 19 19 19 19 20 21 21 21 21 21 21 21 21 21 21 21 21 22 23 24 25 25 26 26 26 26 24 23 21 18 15 12 11 10 10 10 10 11 12
35 34 33 32 31 30 29 28 27 26 24 23 22 22 21 21 21 20 20 21 21 22 22 22 22 21 21 20 20 20 19 19 19 20 21 21 22 22 22 22 22 22 22 22 22 22 22 23 24 25 26 26 27 27 27 27 25 23 20 17 15 13 13 13 12 12 11 12 12
35 34 33 32 31 30 30 29 28 26 25 24 23 22 22 21 21 21 21 22 22 22 22 22 22 21 21 20 20 20 19 19 20 20 21 22 22 23 23 23 23 23 23 23 23 23 23 24 24 25 26 27 28 28 28 27 25 22 20 17 15 14 15 15 15 13 13 13 12
35 34 33 32 32 31 30 29 28 27 25 24 23 23 22 22 21 22 22 22 22 22 22 22 21 20 20 20 20 20 19 19 20 21 22 23 23 23 23 24 24 24 24 24 23 23 23 24 25 26 27 28 29 29 29 27 24 21 19 16 15 15 16 17 16 15 14 13 13
36 35 34 33 32 32 31 30 29 27 25 24 24 23 23 22 22 22 22 22 22 21 21 21 20 19 19 19 19 19 18 19 20 22 23 24 24 24 24 25 25 25 25 25 24 24 24 24 25 26 27 28 29 30 29 26 23 21 18 16 14 15 17 17 17 15 14 14 13
36 35 34 33 33 32 32 30 29 27 26 25 24 24 23 23 22 22 22 21 21 20 19 19 18 18 18 18 18 17 17 18 20 22 24 25 25 25 25 25 25 25 25 25 25 25 25 25 25 26 27 28 30 30 29 26 24 22 19 16 15 16 18 18 18 16 15 14 13
36 35 34 33 33 33 32 30 29 28 26 25 25 24 23 23 23 22 21 20 18 18 17 17 16 16 16 16 15 15 16 18 20 21 23 24 25 25 25 25 26 26 26 25 25 25 25 25 26 26 28 29 30 30 29 27 26 23 20 16 16 17 19 19 18 17 15 14 13
35 35 34 33 33 32 32 31 29 28 27 26 25 24 24 23 22 21 19 18 16 16 16 15 15 13 13 12 12 14 16 18 19 20 21 22 23 23 24 25 25 25 25 25 26 25 25 26 26 27 28 29 30 30 29 29 28 26 22 18 17 18 19 19 18 17 15 14 13
34 34 33 33 32 32 31 30 29 28 27 26 26 25 24 23 21 19 17 16 15 14 13 12 11 9 9 10 13 15 17 19 20 20 19 19 20 21 22 23 24 24 24 25 25 26 26 26 27 28 29 30 30 30 30 31 30 27 22 19 19 19 19 19 18 17 15 14 13
33 33 32 32 32 31 31 30 29 28 27 27 26 25 23 21 19 17 16 14 13 12 10 8 7 8 9 11 13 15 18 20 21 20 19 19 19 20 21 21 22 22 23 23 24 25 26 27 28 29 30 30 31 31 32 32 30 25 21 19 20 20 19 19 18 17 15 14 13
32 32 32 31 31 30 30 29 28 28 27 26 24 22 20 19 17 15 14 12 10 8 7 6 7 8 10 12 14 16 19 21 22 22 20 20 20 20 21 21 21 21 21 22 23 25 26 28 29 30 31 31 31 32 32 31 27 23 19 20 21 20 20 19 19 17 15 14 14
31 31 30 30 30 30 29 29 28 26 25 23 21 19 18 16 15 13 11 9 7 6 6 7 8 9 10 12 15 17 20 22 23 22 21 20 20 20 21 21 21 21 21 22 23 24 26 28 29 30 31 31 32 32 31 29 25 21 20 22 22 21 20 20 19 17 15 14 14
30 30 29 29 29 29 28 27 26 24 22 20 19 18 16 14 12 10 8 6 6 6 6 7 8 9 11 13 16 18 21 23 23 22 21 20 21 21 21 21 21 21 22 22 23 24 26 27 28 30 30 31 31 31 29 26 23 21 22 23 23 21 20 20 18 16 14 13 14
30 29 28 28 28 27 26 25 23 22 20 19 18 16 14 12 10 8 6 5 5 6 6 7 8 10 12 15 17 20 23 24 23 21 20 20 20 21 21 22 22 22 22 23 23 24 25 26 27 28 30 30 30 30 28 25 23 23 24 24 23 22 21 20 18 15 14 13 14
30 29 28 27 27 26 24 23 22 21 20 18 16 14 11 8 6 5 4 4 4 5 6 7 8 10 13 16 19 22 23 23 21 20 19 19 20 20 21 21 22 22 22 23 24 25 25 26 27 28 29 30 30 29 28 26 25 26 26 25 24 23 22 19 16 14 13 14 15
30 29 28 27 26 25 24 23 22 21 19 16 14 11 8 5 3 3 3 4 4 5 6 7 9 12 15 18 21 22 22 20 18 18 17 17 18 19 20 20 21 21 22 23 24 25 25 26 26 27 28 30 30 30 29 28 27 27 26 25 24 23 20 17 14 13 13 14 15
29 28 27 26 25 24 23 22 21 19 16 13 11 8 6 4 3 3 3 4 5 5 6 7 10 13 17 20 21 21 19 18 17 16 16 17 17 18 18 20 20 21 22 23 24 24 25 26 26 27 29 30 31 31 31 29 27 26 25 25 24 22 19 16 14 13 14 15 16
27 26 26 25 25 24 23 21 18 16 13 11 9 7 6 4 3 3 4 4 4 5 6 9 12 16 18 20 20 19 18 17 17 17 17 17 18 18 19 20 21 22 22 22 23 24 25 26 27 28 29 31 32 33 32 29 26 25 25 25 23 20 17 15 14 14 15 16 16
25 25 25 24 24 23 21 18 16 13 11 10 8 7 6 5 4 3 3 3 4 5 7 11 14 17 19 19 18 17 17 18 18 18 19 19 20 20 21 21 22 22 22 22 22 23 24 26 27 28 29 31 32 33 31 26 24 24 25 25 23 20 17 16 15 15 15 16 16
25 25 24 24 23 21 18 16 13 12 10 9 8 7 6 4 3 3 2 3 4 6 9 13 16 18 19 18 17 17 18 19 20 21 21 21 22 22 22 22 23 22 22 22 22 23 24 25 27 28 29 31 33 32 29 24 23 24 26 26 24 21 18 16 15 15 15 16 16
Wind_Direction
188 186 185 185 185 186 186 187 188 188 188 188 186 185 185 183 181 179 178 177 175 172 170 167 165 163 161 161 162 162 162 159 157 153 148 143 136 131 129 128 128 127 125 118 109 98 87 76 66 57 46 36 32 31 28 23 19 15 14 15 19 21 23 23 19 13 10 7 4
189 188 187 187 187 188 188 188 188 188 189 189 188 186 185 184 182 180 178 177 176 173 170 168 166 165 164 164 167 168 167 164 162 159 155 151 145 141 139 141 142 141 139 132 124 112 98 83 70 57 45 35 32 30 29 25 21 17 15 16 17 18 17 12 6 0 357 355 353
189 189 188 188 189 189 189 188 188 188 187 187 186 185 184 184 183 181 179 177 176 174 172 169 167 167 166 167 169 171 171 169 167 164 160 157 153 151 151 152 153 153 151 147 141 131 117 101 81 59 41 32 28 28 28 26 22 19 17 17 17 14 8 359 353 348 345 343 343
190 189 189 190 190 190 190 189 188 187 186 184 182 182 182 183 183 182 180 178 176 175 173 171 168 168 169 170 172 173 174 173 172 169 166 162 160 160 160 163 164 164 164 162 159 154 147 134 113 65 32 22 21 24 25 23 19 18 17 16 14 10 359 347 340 336 334 333 333
190 190 191 191 192 192 191 189 187 185 183 181 180 179 179 181 182 181 180 179 178 177 176 173 170 170 171 173 174 175 176 176 175 173 171 168 167 168 171 174 176 177 178 178 177 177 176 176 183 210 349 1 7 12 14 14 13 13 13 12 10 3 351 336 329 325 325 324 325
189 190 191 190 190 189 188 186 185 183 181 180 179 179 179 181 182 183 182 181 179 178 176 174 172 171 172 175 176 177 178 178 179 178 177 175 175 178 182 186 189 192 195 195 196 198 200 205 215 234 278 322 341 352 356 359 1 4 7 8 6 359 346 327 317 314 314 316 318
187 187 187 186 186 185 184 183 183 182 182 181 182 182 182 184 185 185 185 183 180 178 176 175 175 174 174 176 178 180 181 181 182 183 184 183 184 187 191 196 203 207 210 212 213 215 219 224 229 239 259 288 312 327 335 340 342 349 357 2 1 356 344 321 309 305 305 307 310
184 184 183 183 183 183 183 182 182 182 183 183 184 185 186 187 187 187 186 185 182 180 179 179 178 177 177 178 180 182 183 185 186 188 190 192 193 196 200 205 211 216 220 224 226 229 232 237 241 245 254 270 288 304 314 319 321 326 338 349 354 352 344 325 311 304 300 298 300
181 182 182 183 183 184 184 184 184 185 185 186 187 187 188 189 189 189 188 186 185 184 183 182 181 181 181 182 183 185 187 189 191 193 197 199 201 203 206 212 216 220 225 230 234 238 240 243 245 249 255 263 274 287 296 302 302 304 313 330 342 346 341 330 320 312 304 295 293
181 182 183 184 185 186 185 185 187 188 188 188 188 188 189 191 192 193 192 190 189 187 185 185 184 184 184 186 187 189 191 194 196 199 202 205 208 210 214 217 220 224 227 233 237 240 243 245 246 249 254 259 266 275 282 287 288 287 292 306 327 337 336 326 320 316 309 298 289
184 185 186 186 186 186 186 186 187 188 190 189 189 189 190 193 195 196 195 194 190 188 188 188 188 188 189 191 193 194 196 198 202 205 209 211 215 217 220 223 225 227 230 234 238 240 243 245 246 248 251 256 261 266 271 276 278 277 278 286 305 322 327 319 313 312 309 301 291
186 187 188 188 188 187 186 186 187 188 190 191 191 191 192 195 197 197 196 194 192 191 191 192 193 195 196 197 199 200 202 205 208 211 214 217 220 222 225 227 229 231 233 235 238 240 242 244 245 247 249 253 258 261 265 268 270 269 269 273 285 303 315 315 312 310 309 304 296
188 188 188 188 188 187 187 188 189 190 191 193 193 194 195 196 197 197 196 195 195 195 195 196 199 202 204 205 206 207 209 211 214 217 220 222 225 226 228 229 231 233 234 236 238 240 241 242 244 246 249 252 255 258 261 263 264 264 264 266 273 287 303 310 313 313 309 305 299
190 189 188 188 188 188 189 190 191 192 193 195 196 197 196 196 196 197 198 198 199 199 199 201 204 209 212 213 214 215 216 217 220 222 225 227 228 229 230 231 233 234 235 236 238 239 240 242 244 246 248 250 253 255 257 260 261 261 261 262 266 276 290 302 312 314 309 301 301
190 190 189 190 190 190 191 192 193 194 195 197 198 198 197 196 197 198 200 202 202 203 204 206 210 214 218 220 221 221 222 223 225 227 229 230 231 232 232 233 234 235 235 236 237 238 240 242 244 246 248 250 252 254 255 257 259 260 260 260 263 270 280 293 307 312 309 302 302
191 191 191 192 193 194 194 194 195 196 197 198 200 200 199 198 199 201 203 204 205 207 209 212 215 219 222 224 225 227 227 228 229 230 232 233 234 234 235 235 236 236 236 236 237 239 241 243 244 246 247 249 251 253 254 256 257 258 259 259 261 265 273 285 300 309 310 307 305
192 193 195 196 196 196 196 196 197 198 198 200 201 201 201 201 202 203 206 207 208 210 212 216 219 222 224 227 228 229 230 230 231 233 235 236 237 237 237 238 238 238 238 238 238 239 241 242 244 245 247 248 250 252 254 255 256 256 256 257 258 262 268 280 296 309 313 312 308
194 196 198 199 199 199 199 199 199 200 200 201 202 203 204 205 205 207 209 211 213 214 216 219 222 224 227 228 230 231 232 232 233 235 237 239 239 240 240 240 240 240 240 240 240 241 241 242 242 244 245 247 249 251 252 253 254 254 254 254 255 258 264 274 290 306 313 312 309
196 198 200 201 201 202 202 202 202 202 202 203 204 205 206 208 209 210 212 214 217 219 220 221 223 225 228 229 231 232 233 234 235 237 239 240 241 242 242 242 242 242 242 242 242 242 242 242 242 242 244 246 248 249 250 251 251 251 251 251 252 255 260 269 284 300 308 311 310
198 200 201 201 202 203 204 204 205 204 204 204 205 206 208 210 211 213 214 216 219 222 223 224 225 226 228 230 231 232 234 235 237 238 240 242 242 243 243 243 243 243 244 244 244 244 243 242 242 242 243 245 246 247 248 249 248 248 248 248 249 251 257 268 281 295 304 307 307
200 201 202 202 203 204 206 206 206 206 206 206 207 208 210 211 213 215 217 220 222 224 225 225 226 227 229 230 231 232 234 236 238 239 241 243 244 244 245 245 245 246 246 246 245 245 244 243 242 242 243 244 246 248 248 248 246 245 244 244 245 248 256 267 280 292 300 303 303
201 201 202 202 204 206 207 207 207 207 207 208 209 210 212 213 215 218 220 223 224 225 226 227 228 229 230 231 232 234 236 238 240 242 243 245 245 246 247 247 247 248 248 248 247 246 244 243 242 242 243 244 247 248 249 248 245 242 240 239 239 245 256 268 278 287 295 299 300
201 201 202 203 205 207 208 208 207 207 208 209 210 212 214 216 218 220 222 224 225 227 227 228 229 230 231 233 234 236 237 239 243 245 247 247 248 248 248 248 249 250 250 250 248 247 245 244 243 243 243 244 246 248 248 246 243 239 236 234 236 245 258 268 276 283 290 295 295
201 201 202 204 206 208 208 208 208 208 209 210 212 214 216 218 220 221 223 224 226 227 228 229 230 231 233 235 236 237 239 242 247 249 250 250 249 249 249 250 250 251 252 252 251 249 247 246 244 244 244 245 246 247 247 244 240 236 231 230 237 251 262 268 273 279 286 291 291
201 202 203 205 207 208 208 208 208 209 210 212 214 215 217 219 220 221 223 225 227 228 229 230 230 232 233 235 237 239 242 247 251 253 253 252 252 252 251 252 252 254 254 254 253 252 251 249 248 247 246 246 246 246 244 241 236 230 226 230 245 260 268 269 270 274 281 286 286
201 203 204 206 207 208 208 208 209 210 211 213 215 217 218 219 221 222 224 225 227 228 229 229 230 232 234 236 238 242 248 255 258 258 256 256 255 254 254 254 255 256 256 256 255 254 253 252 252 251 250 249 248 245 241 235 229 223 224 235 255 270 272 269 267 271 276 281 281
202 203 205 207 208 208 208 209 209 211 212 214 216 218 219 220 221 223 224 226 226 226 226 227 229 231 234 237 241 248 257 265 267 265 261 260 259 258 257 257 257 258 258 258 257 257 256 255 253 252 251 251 249 246 239 230 223 221 226 241 262 274 274 268 265 267 272 275 276
202 204 205 207 207 208 208 209 210 211 213 215 217 219 220 221 222 223 224 224 223 222 223 224 227 230 234 239 248 260 271 277 276 271 266 264 262 261 260 260 260 261 261 261 260 259 258 256 254 252 251 251 250 246 239 230 223 222 228 243 262 272 271 266 262 263 268 271 272
203 204 205 206 207 207 208 208 210 212 214 217 219 220 221 221 221 221 220 218 217 217 219 222 225 230 238 249 265 277 282 282 279 273 268 265 264 263 263 263 263 263 263 263 262 261 260 258 254 252 251 251 250 246 239 232 226 225 230 242 258 266 266 260 257 258 263 267 270
203 203 204 204 206 207 208 208 210 213 215 218 219 220 221 220 219 216 213 211 211 213 216 220 225 235 253 269 278 282 282 281 278 273 268 266 265 265 265 265 266 266 266 265 264 263 261 259 255 253 253 252 251 246 240 234 229 227 232 245 257 262 260 255 252 254 259 265 268
201 202 203 204 205 206 207 209 211 214 216 218 219 220 218 216 212 208 206 205 206 209 214 225 240 258 270 277 280 281 281 280 277 273 270 269 270 270 270 269 269 269 268 267 266 264 262 259 257 255 254 253 251 247 241 234 228 228 237 253 263 263 257 250 248 251 257 263 267
200 201 202 203 204 206 208 210 212 215 217 218 218 215 211 207 203 200 198 198 202 210 225 244 261 271 276 279 281 281 281 279 276 274 273 274 275 275 274 273 272 272 271 270 268 265 263 260 258 257 256 255 252 248 241 231 226 229 244 260 265 262 253 246 245 248 255 263 267
199 199 201 202 204 206 208 211 213 215 216 214 211 205 200 195 192 190 191 196 209 229 249 263 271 277 281 282 282 281 280 278 277 276 277 279 280 279 278 277 277 277 276 273 271 267 265 262 260 259 258 256 253 246 237 227 225 234 250 262 263 257 249 243 243 247 255 262 265
197 198 200 201 203 206 209 211 212 212 209 203 198 192 187 185 184 187 195 211 233 252 266 274 279 282 284 283 282 281 279 278 278 279 282 284 284 283 282 281 282 283 281 279 275 272 268 265 263 261 259 255 249 240 230 224 229 242 255 261 258 251 243 240 242 247 254 259 261
196 197 199 201 203 206 208 208 206 202 196 190 185 181 179 180 185 196 213 234 252 265 274 280 284 287 286 283 281 280 279 279 281 284 286 288 288 287 285 286 288 288 286 284 280 277 273 269 266 263 258 251 243 234 227 227 237 250 258 259 252 244 238 237 240 247 254 258 260
197 197 198 200 202 204 204 200 195 189 184 180 177 175 176 179 188 205 230 252 264 272 278 285 290 289 286 282 281 280 281 283 286 288 290 291 291 290 289 290 292 291 289 287 284 280 276 272 268 262 254 246 239 232 229 233 244 254 258 255 246 238 234 234 238 247 255 260 261
198 198 198 199 200 199 195 190 184 179 176 173 172 172 171 169 181 217 245 260 269 276 284 291 292 288 284 282 282 282 284 287 289 291 291 291 292 293 294 294 294 293 291 288 285 282 278 273 267 259 251 243 237 233 232 238 246 253 254 248 239 231 227 229 237 248 257 262 262
198 199 198 197 194 190 185 179 175 172 171 169 168 164 158 155 176 219 245 257 268 282 294 297 291 285 283 282 283 285 286 287 288 289 290 291 292 293 295 295 294 293 291 288 285 282 278 272 265 257 250 243 238 234 234 238 244 249 248 241 231 223 222 228 239 250 258 261 261
197 197 195 192 187 181 175 172 170 168 166 162 157 149 144 152 179 214 240 257 273 292 299 294 286 283 282 283 284 285 285 286 286 288 290 291 292 292 293 293 292 291 289 287 285 281 277 271 264 257 251 245 238 234 233 236 243 247 243 233 223 219 223 232 242 252 258 260 260
193 192 189 184 178 172 168 165 164 161 157 151 145 140 143 157 183 215 242 268 291 301 295 287 283 282 282 283 284 285 286 287 288 289 291 293 293 292 292 291 291 290 288 286 283 280 276 270 264 256 248 241 236 233 233 237 245 246 238 226 219 220 229 238 245 252 256 259 258
186 183 179 173 169 165 162 158 154 150 146 142 140 140 146 161 189 220 257 293 305 298 288 283 281 280 281 283 285 287 289 291 292 293 294 294 294 293 292 291 291 290 288 285 282 279 275 270 262 252 242 236 233 232 234 241 247 243 233 224 222 226 233 239 244 248 253 257 258
Height
833 834 834 835 836 837 838 838 839 840 840 841 843 844 845 846 847 848 849 850 850 851 852 853 854 855 855 856 857 857 857 858 858 859 859 859 859 860 860 861 861 862 862 863 863 864 864 864 864 865 865 865 865 865 865 865 865 864 864 864 864 863 863 863 863 863 863 863 863
833 833 834 835 836 837 838 838 839 840 840 841 842 843 845 846 847 848 849 850 850 851 852 852 853 854 855 856 856 857 857 858 858 859 859 859 859 860 860 861 861 862 862 863 863 863 864 864 865 865 865 865 865 865 865 865 865 865 864 864 864 863 863 863 863 863 863 863 863
832 833 834 835 836 836 837 838 839 840 841 841 842 843 845 846 847 848 849 850 850 851 851 852 853 854 855 855 856 857 857 858 858 859 859 859 860 860 860 861 861 862 862 862 863 863 864 864 864 865 865 865 865 865 865 865 865 865 864 864 864 864 863 863 863 863 863 862 862
832 833 834 834 835 836 837 838 839 840 841 842 843 844 845 846 847 848 849 850 851 851 851 852 853 853 854 855 856 857 857 858 859 859 859 860 860 860 860 861 861 862 862 862 862 863 863 864 864 864 865 865 865 865 865 865 864 864 864 864 864 864 864 863 863 863 862 862 862
832 833 834 834 835 836 837 838 839 840 841 842 843 844 845 846 847 848 849 850 850 851 851 852 852 853 854 855 856 857 858 858 859 859 860 860 860 861 861 861 862 862 862 862 862 862 862 863 863 864 864 864 864 864 864 864 864 864 864 864 864 864 864 863 863 863 862 862 862
832 833 834 834 835 836 837 838 839 840 841 842 843 844 845 846 847 848 849 850 851 851 852 852 852 853 854 855 856 857 857 858 859 859 860 860 860 861 861 861 862 862 862 862 861 861 861 862 862 863 863 863 863 863 863 863 863 863 863 863 863 863 863 863 863 863 862 862 862
832 833 834 834 835 836 837 838 839 840 841 842 843 844 844 846 847 848 849 850 851 851 852 852 852 853 854 854 855 856 857 858 859 859 860 860 860 861 861 861 862 862 862 862 861 861 861 861 862 862 862 862 862 862 862 862 863 863 863 863 863 863 863 863 863 863 862 862 861
832 833 834 834 835 836 837 838 839 840 841 842 843 843 844 845 847 848 849 850 851 851 852 852 852 853 853 854 855 856 857 857 858 859 859 859 860 860 861 861 861 861 862 862 861 861 861 861 861 862 862 862 862 862 862 862 862 862 862 862 862 862 862 862 862 862 862 861 861
832 833 833 834 835 835 836 837 838 839 840 841 842 843 844 845 846 847 849 849 850 851 852 852 852 853 853 854 854 855 856 857 857 858 858 859 859 860 860 860 861 861 861 861 861 861 861 861 862 861 861 861 861 861 861 861 862 862 862 862 862 862 862 862 862 862 861 861 860
831 832 833 833 834 835 835 836 837 839 840 841 841 842 843 844 846 847 848 849 850 850 851 851 852 852 852 853 853 854 855 855 856 857 857 858 858 859 859 859 860 860 860 861 861 861 861 861 861 861 861 861 861 861 861 861 861 861 861 861 861 861 861 861 861 861 860 860 859
829 830 831 832 833 834 835 836 837 838 839 840 841 841 842 843 845 846 847 848 849 849 850 851 851 852 852 852 852 853 854 854 855 856 856 857 857 858 858 858 859 859 859 860 860 861 861 861 861 861 861 860 860 860 860 860 860 860 860 860 860 860 860 860 859 859 859 859 859
828 829 830 831 832 833 834 835 836 837 838 839 839 840 841 842 843 845 846 847 847 848 849 850 850 851 851 851 852 852 852 853 854 854 855 856 856 857 857 857 858 858 858 859 859 860 860 861 861 861 861 860 860 860 859 859 859 859 859 859 859 859 859 859 858 858 858 858 857
827 828 829 831 832 832 833 834 835 836 837 838 838 839 839 840 842 843 845 846 847 847 848 849 850 850 850 851 851 851 852 852 853 853 854 854 855 855 856 856 856 857 857 857 858 859 859 860 860 861 860 860 859 859 859 859 858 858 858 858 858 858 858 857 857 857 857 856 856
826 827 828 829 830 831 832 833 834 834 836 837 837 838 838 839 841 842 843 844 846 847 847 848 849 849 850 850 850 850 851 851 852 852 853 853 853 854 854 854 855 855 855 856 856 857 858 859 859 860 860 859 859 859 858 858 857 857 857 857 857 857 857 856 856 856 855 855 855
825 826 827 828 829 830 831 832 832 833 834 836 837 837 838 839 840 841 842 844 845 846 846 847 848 849 849 849 850 850 850 850 851 851 852 852 852 853 853 853 853 854 854 854 855 855 856 857 858 858 859 859 858 858 857 857 857 856 856 856 856 856 855 855 855 855 854 854 854
824 825 826 827 828 829 830 830 831 832 834 835 836 837 837 838 839 840 841 842 844 844 845 846 847 848 848 849 849 849 849 849 850 850 851 851 851 852 852 852 852 852 852 853 853 854 855 855 856 857 857 857 857 857 856 856 855 855 855 855 854 854 854 854 854 854 854 853 853
823 824 825 826 827 828 829 829 830 831 832 834 835 836 837 837 838 839 840 841 842 843 844 844 845 846 847 848 848 848 848 848 849 849 849 850 850 850 851 851 851 851 851 851 852 852 853 854 854 855 855 855 855 855 855 854 854 854 853 853 853 853 853 853 853 853 852 852 852
821 822 823 824 826 827 827 828 829 830 831 832 834 834 835 836 837 838 839 840 841 841 842 843 844 844 845 846 846 847 847 847 847 848 848 848 849 849 849 849 850 850 850 850 850 850 851 851 852 853 853 853 853 853 853 853 852 852 852 852 852 852 852 852 852 852 852 851 851
819 821 822 823 824 825 826 827 828 829 830 831 832 833 834 835 836 837 838 839 839 840 840 841 842 842 843 844 844 845 845 845 846 846 847 847 847 848 848 848 848 848 848 848 848 848 849 849 850 851 851 851 851 851 851 851 851 850 850 850 851 851 851 851 851 851 851 850 850
817 819 820 821 822 824 825 826 827 828 829 830 831 832 833 834 835 835 836 837 837 838 839 839 840 840 841 842 842 843 843 844 844 845 845 846 846 846 846 847 847 847 847 846 846 846 847 847 848 848 849 849 849 849 849 849 849 849 849 849 849 849 850 850 850 850 849 849 849
815 816 817 819 821 822 823 824 825 826 827 829 829 830 832 832 833 834 835 835 836 837 837 837 838 839 839 840 841 841 842 843 843 844 844 844 844 844 845 845 845 845 845 845 845 845 845 845 846 847 847 847 847 847 847 847 847 847 847 848 848 848 849 849 849 849 848 848 848
813 814 816 817 819 820 822 823 824 825 826 827 828 829 830 831 832 832 833 834 834 835 835 836 836 837 838 839 839 840 841 841 842 842 843 843 843 843 844 844 844 844 844 844 843 843 844 844 844 845 845 845 845 845 845 845 845 846 846 846 847 847 847 848 848 848 847 847 847
811 813 814 816 817 819 820 822 823 824 825 826 827 828 829 830 830 831 832 832 833 833 834 834 835 836 837 837 838 839 839 840 841 841 841 841 842 842 842 842 842 842 842 842 842 842 842 842 843 843 843 843 843 843 843 843 844 844 845 845 845 846 846 847 847 847 846 846 846
810 812 813 815 816 817 819 820 822 823 824 825 826 827 828 828 829 830 830 831 832 832 833 833 834 835 836 836 837 838 838 839 839 840 840 840 840 840 841 841 841 841 841 840 840 841 841 841 841 841 842 842 842 842 842 842 842 843 843 844 844 845 845 845 846 846 845 845 844
809 810 812 813 815 816 818 819 820 822 823 824 825 826 826 827 828 829 829 830 830 831 832 832 833 834 835 836 836 837 837 838 838 838 838 839 839 839 839 839 839 839 839 839 839 839 839 839 839 839 840 840 840 840 840 841 841 842 842 843 843 844 844 844 844 844 844 844 843
807 809 810 812 813 815 816 817 819 820 821 822 824 824 825 826 827 827 828 829 829 830 831 832 833 833 834 835 835 836 836 837 837 837 837 837 837 837 837 837 837 837 837 837 837 837 837 837 838 838 838 838 838 839 839 840 840 841 841 841 842 842 842 842 843 843 843 843 842
806 807 809 810 812 813 815 816 818 819 820 821 822 823 824 825 825 826 827 828 829 829 830 831 832 833 833 834 835 835 836 836 836 836 836 836 836 836 836 835 835 835 835 835 836 836 836 836 836 836 837 837 837 837 837 838 839 839 839 840 840 841 841 841 841 841 841 841 841
804 806 807 809 811 812 813 815 817 818 819 820 821 822 823 824 824 825 826 827 828 829 830 830 831 832 833 834 834 835 835 835 835 835 835 835 835 834 834 834 834 834 834 834 834 834 834 834 835 835 835 835 835 835 836 836 836 837 837 838 838 839 839 839 839 839 840 839 839
803 805 806 808 809 811 812 814 815 816 817 819 820 821 822 822 823 824 825 826 827 828 829 830 830 831 832 833 833 834 834 834 834 834 834 833 833 833 833 832 832 832 832 832 832 832 833 833 833 833 833 833 833 834 834 834 834 834 834 835 835 836 836 837 837 838 838 838 838
802 804 805 806 808 810 811 813 814 815 817 818 819 819 821 822 823 824 825 826 827 827 828 829 830 830 831 832 832 833 833 833 833 833 832 832 832 832 831 831 831 831 831 831 831 831 831 831 831 831 831 831 831 831 831 831 831 831 832 832 833 833 834 834 835 836 836 836 836
801 802 804 805 807 809 810 812 813 814 815 817 817 819 820 821 822 823 824 825 826 827 828 829 829 829 829 830 831 832 832 832 832 831 831 831 830 830 830 830 829 829 829 829 829 829 829 829 829 829 829 829 829 829 829 828 829 830 831 832 832 832 832 833 833 834 834 834 835
800 802 803 805 806 808 809 811 813 814 815 816 817 818 819 820 822 823 824 825 826 827 827 827 828 828 828 829 830 831 831 831 830 830 829 829 829 829 828 828 828 828 827 827 827 827 827 827 827 827 827 827 827 827 826 827 828 829 830 831 831 831 831 831 832 832 832 833 833
799 801 802 804 806 807 809 811 812 813 814 816 817 818 819 820 822 823 824 824 825 826 826 826 826 827 828 829 829 830 830 829 829 828 828 828 827 827 827 826 826 826 826 826 826 826 826 825 825 825 825 825 825 825 825 825 827 828 829 829 829 829 829 830 830 830 831 831 832
799 800 802 804 805 807 808 810 811 813 814 816 817 818 819 820 821 822 823 824 824 824 825 825 825 826 827 828 829 829 828 828 827 827 827 826 826 826 825 824 824 824 824 824 824 824 824 824 824 823 823 823 823 823 824 825 825 826 827 827 827 827 828 828 829 829 829 830 830
798 800 802 803 805 806 808 809 811 812 814 815 817 818 819 820 821 822 822 823 823 823 824 824 824 825 826 827 828 827 827 826 826 826 825 825 824 824 823 823 822 822 822 822 822 822 822 822 822 822 822 822 822 822 823 823 824 824 825 825 825 826 826 827 827 828 828 829 829
797 799 801 802 804 806 807 809 810 812 814 815 816 817 818 819 820 821 822 822 822 823 823 823 824 825 826 827 827 826 826 825 825 824 824 824 823 822 822 821 821 820 820 820 820 820 820 820 820 820 820 820 820 821 821 821 822 822 822 823 823 824 824 825 826 827 827 827 827
796 798 800 802 803 805 807 808 810 812 813 814 815 816 817 817 819 820 821 822 822 822 822 822 823 825 825 826 825 825 824 824 823 823 822 822 821 821 820 819 819 819 819 818 818 818 818 818 818 818 818 818 818 819 819 819 819 819 820 821 821 822 823 824 825 826 826 826 826
796 798 799 801 803 804 806 808 809 811 812 813 814 814 815 816 818 819 820 821 821 821 821 822 823 824 824 824 824 823 823 822 822 821 821 820 820 819 818 817 817 817 817 817 817 816 816 816 816 816 816 816 816 816 816 816 817 818 819 819 820 821 822 822 824 824 825 825 825
796 797 799 801 802 804 806 807 809 810 811 812 813 813 814 815 817 818 819 819 819 820 820 821 822 823 823 823 822 822 821 821 820 820 819 818 818 817 817 816 815 815 815 815 815 815 814 814 814 814 814 814 814 814 814 815 816 817 818 819 819 820 821 821 822 823 823 824 824
795 797 799 801 802 804 805 807 808 809 810 811 811 812 813 815 816 817 818 818 819 819 820 821 822 822 822 821 821 820 819 819 819 818 818 817 816 816 815 814 814 813 813 813 813 813 813 813 812 812 813 813 813 813 813 814 816 817 817 818 818 819 820 821 821 821 822 822 822
795 797 799 800 802 803 805 806 807 809 809 810 811 811 813 814 815 816 817 817 818 818 819 820 820 820 820 820 819 819 818 817 817 817 816 815 815 814 814 813 812 812 812 811 811 811 811 811 811 811 812 812 812 812 813 814 815 816 816 817 817 818 818 819 819 819 819 820 820